Regional Weather Roundup
Issued by NWS

Home | Current Version | Previous Version | Text Only | Print | Product List | Glossary On
Versions: 1 2 3 4 5 6 7 8 9 10 11 12 13 14 15 16 17 18 19 20 21 22 23 24 25 26 27
000
ASUS46 KPQR 240310
RWROR

OREGON REGIONAL WEATHER ROUNDUP
NATIONAL WEATHER SERVICE PORTLAND OR
700 PM PST MON JAN 23 2017

NOTE: "FAIR" INDICATES FEW OR NO CLOUDS BELOW 12,000 FEET WITH
NO SIGNIFICANT WEATHER AND/OR OBSTRUCTIONS TO VISIBILITY.

ORZ001>013-240400-
NORTHWEST OREGON


CITY           SKY/WX    TMP DP  RH WIND       PRES   REMARKS
ASTORIA        CLEAR     43  34  70 CALM      29.92R
NEWPORT        CLEAR     37  36  93 E3        29.91R
PORTLAND       MOCLDY    39  33  79 SE9       29.91R WCI  33
VANCOUVER WA   PTCLDY    40  33  76 MISG      29.91R
SCAPPOOSE      PTCLDY    42  35  76 NW3       29.90R
HILLSBORO      PTCLDY    39  36  89 NW5       29.89R
AURORA         PTCLDY    41  33  73 CALM      29.90R
MCMINNVILLE    PTCLDY    41  34  76 N6        29.90R
SALEM          PTCLDY    43  34  70 NW3       29.89R
CORVALLIS        N/A     37  34  87 NW7       29.89R WCI  32
EUGENE         PTCLDY    36  34  92 N9        29.88R WCI  29
$$

ORZ021-028-240400-
SOUTHWEST OREGON


CITY           SKY/WX    TMP DP  RH WIND       PRES   REMARKS
NORTH BEND     MOCLDY    45  41  87 NE8       29.87R
BROOKINGS      CLOUDY    44  38  79 NW5       29.80R
ROSEBURG       PTCLDY    43  34  70 CALM      29.84R
SEXTON SUMMIT  CLOUDY    31  25  78 NE8       29.75R WCI  23
MEDFORD        CLEAR     39  34  82 CALM      29.81R
$$

ORZ014>016-041-240400-
COLUMBIA GORGE


CITY           SKY/WX    TMP DP  RH WIND       PRES   REMARKS
TROUTDALE      PTCLDY    39  33  79 E15       29.91R WCI  31
THE DALLES     CLOUDY    35  32  88 CALM      29.96R
$$

ORZ029>031-041-044-049-050-061>064-502-503-505>511-240400-
EASTERN OREGON


CITY           SKY/WX    TMP DP  RH WIND       PRES   REMARKS
REDMOND        PTCLDY    25  20  81 W7        29.82R WCI  17
BEND           PTCLDY    25  23  93 CALM      29.82R
PRINEVILLE     CLOUDY    27  25  93 CALM      29.81R
KLAMATH FALLS  CLEAR     19  17  92 NW6       29.76R WCI  11
LAKEVIEW       MOCLDY    16  10  79 N9        29.76R WCI   4
HERMISTON      FOG       32  32 100 CALM      29.94R VSB 1/2
PENDLETON      CLOUDY    30  30 100 CALM      29.88R
JOHN DAY       MOCLDY    30  26  84 CALM      29.77R
MEACHAM        CLOUDY    25  21  85 CALM      29.77R
LA GRANDE      MOCLDY    32  23  69 NW16      29.76R WCI  21
BAKER CITY     MOCLDY    26  20  77 VRB3      29.73R
BURNS          MOCLDY    14  12  92 W7        29.72R WCI   4
ROME             N/A     30  22  72 S6        29.70R WCI  24
ONTARIO        CLOUDY    32  24  72 NW6       29.74R WCI  26
$$




USA.gov is the U.S. government's official web portal to all federal, state and local government web resources and services.